Location: *
(46.4000°N, 12.6667°E)
Time: 18:17:08
(UTC+00:00)

ISS - Pass Details

Date: 13 March 2021
Orbit: 418 x 421 km, 51.6° (Epoch: 21 April)

Event Time Altitude Azimuth Distance (km) Brightness Sun altitude
Exits shadow 04:02:41 17° 202° (SSW) 1,133 -1.9 -15.1°
Drops below altitude 10° 04:04:13 10° 176° (S) 1,490 -1.1 -14.9°
Sets 04:06:42 0° 158° (SSE) 2,349 0.2 -14.4°
